EN

Hourly Weather Sarkyrama

Today, 27 January, Wednesday

Time Temperature Precipitation Wind Pressure Humidity
00:00 -5°C° 0 mm 2 mps 742 mmHg 65%
01:00 -5°C° 0 mm 2 mps 742 mmHg 65%
02:00 -5°C° 0 mm 2 mps 742 mmHg 64%
03:00 -5°C° 0 mm 2 mps 742 mmHg 64%
04:00 -5°C° 0 mm 2 mps 742 mmHg 63%
05:00 -5°C° 0 mm 2 mps 742 mmHg 63%
06:00 -5°C° 0 mm 2 mps 742 mmHg 62%
07:00 -5°C° 0 mm 2 mps 742 mmHg 62%
08:00 -5°C° 0 mm 2 mps 743 mmHg 62%
09:00 -4°C° 0 mm 2 mps 743 mmHg 65%
10:00 -3°C° 0 mm 2 mps 743 mmHg 68%
11:00 -1°C° 0 mm 2 mps 743 mmHg 71%
12:00 -1°C° 0 mm 2 mps 743 mmHg 74%
13:00 +2°C° 0 mm 1 mps 742 mmHg 76%
14:00 +3°C° 0 mm 1 mps 742 mmHg 79%
15:00 +2°C° 0 mm 1 mps 742 mmHg 77%
16:00 -1°C° 0 mm 2 mps 742 mmHg 74%
17:00 -2°C° 0 mm 2 mps 742 mmHg 71%
18:00 -3°C° 0 mm 2 mps 743 mmHg 70%
19:00 -5°C° 0 mm 3 mps 743 mmHg 69%
20:00 -6°C° 0 mm 3 mps 743 mmHg 68%
21:00 -6°C° 0 mm 3 mps 743 mmHg 66%
22:00 -6°C° 0 mm 3 mps 743 mmHg 65%
23:00 -6°C° 0 mm 3 mps 742 mmHg 64%

Tomorrow, 28 January, Thursday

Time Temperature Precipitation Wind Pressure Humidity
00:00 -6°C° 0 mm 3 mps 742 mmHg 64%
01:00 -5°C° 0 mm 2 mps 742 mmHg 64%
02:00 -5°C° 0 mm 2 mps 742 mmHg 63%
03:00 -5°C° 0 mm 2 mps 742 mmHg 63%
04:00 -5°C° 0 mm 2 mps 742 mmHg 64%
05:00 -6°C° 0 mm 3 mps 742 mmHg 64%
06:00 -5°C° 0 mm 2 mps 742 mmHg 63%
07:00 -5°C° 0 mm 2 mps 742 mmHg 63%
08:00 -5°C° 0 mm 2 mps 743 mmHg 63%
09:00 -3°C° 0 mm 2 mps 743 mmHg 65%
10:00 -2°C° 0 mm 2 mps 743 mmHg 67%
11:00 -1°C° 0 mm 2 mps 743 mmHg 69%
12:00 +1°C° 0 mm 2 mps 742 mmHg 71%
13:00 +2°C° 0 mm 2 mps 742 mmHg 74%
14:00 +2°C° 0 mm 2 mps 742 mmHg 76%
15:00 +1°C° 0 mm 2 mps 742 mmHg 74%
16:00 -1°C° 0 mm 3 mps 742 mmHg 71%
17:00 -2°C° 0 mm 3 mps 742 mmHg 68%
18:00 -2°C° 0 mm 3 mps 742 mmHg 67%
19:00 -4°C° 0 mm 3 mps 742 mmHg 65%
20:00 -5°C° 0 mm 3 mps 742 mmHg 64%
21:00 -5°C° 0 mm 3 mps 742 mmHg 62%
22:00 -5°C° 0 mm 3 mps 742 mmHg 61%
23:00 -5°C° 0 mm 3 mps 741 mmHg 60%

Day after tomorrow, 29 January, Friday

Time Temperature Precipitation Wind Pressure Humidity
00:00 -5°C° 0 mm 3 mps 741 mmHg 59%
01:00 -5°C° 0 mm 3 mps 741 mmHg 58%
02:00 -5°C° 0 mm 3 mps 741 mmHg 58%
03:00 -4°C° 0 mm 2 mps 741 mmHg 57%
04:00 -3°C° 0 mm 2 mps 741 mmHg 56%
05:00 -3°C° 0 mm 2 mps 741 mmHg 55%
06:00 -3°C° 0 mm 2 mps 741 mmHg 55%
07:00 -3°C° 0 mm 2 mps 741 mmHg 54%
08:00 -3°C° 0 mm 2 mps 741 mmHg 53%
09:00 -2°C° 0 mm 2 mps 741 mmHg 57%
10:00 +1°C° 0 mm 2 mps 740 mmHg 60%
11:00 +2°C° 0 mm 2 mps 740 mmHg 63%
12:00 +3°C° 0 mm 2 mps 740 mmHg 65%
13:00 +3°C° 0 mm 2 mps 740 mmHg 67%
14:00 +5°C° 0 mm 1 mps 739 mmHg 69%
15:00 +3°C° 0 mm 2 mps 739 mmHg 66%
16:00 +2°C° 0 mm 2 mps 739 mmHg 62%
17:00 +1°C° 0 mm 2 mps 739 mmHg 59%
18:00 +1°C° 0 mm 2 mps 739 mmHg 57%
19:00 -1°C° 0 mm 3 mps 739 mmHg 55%
20:00 -2°C° 0 mm 3 mps 739 mmHg 53%
21:00 -2°C° 0 mm 3 mps 738 mmHg 51%
22:00 -2°C° 0 mm 2 mps 738 mmHg 49%
23:00 -2°C° 0 mm 2 mps 738 mmHg 47%

30 January, Saturday

Time Temperature Precipitation Wind Pressure Humidity
00:00 -2°C° 0 mm 2 mps 738 mmHg 46%
01:00 -1°C° 0 mm 2 mps 737 mmHg 44%
02:00 -1°C° 0 mm 2 mps 737 mmHg 43%
03:00 -1°C° 0 mm 2 mps 737 mmHg 42%
04:00 -1°C° 0 mm 2 mps 737 mmHg 40%
05:00 -1°C° 0 mm 2 mps 737 mmHg 39%
06:00 -1°C° 0 mm 2 mps 736 mmHg 38%
07:00 -1°C° 0 mm 2 mps 736 mmHg 37%
08:00 +1°C° 0 mm 2 mps 736 mmHg 36%
09:00 +2°C° 0 mm 2 mps 736 mmHg 40%
10:00 +4°C° 0 mm 1 mps 736 mmHg 44%
11:00 +6°C° 0 mm 1 mps 736 mmHg 48%
12:00 +6°C° 0 mm 1 mps 735 mmHg 49%
13:00 +7°C° 0 mm 1 mps 735 mmHg 50%
14:00 +7°C° 0 mm 1 mps 734 mmHg 50%
15:00 +7°C° 0 mm 1 mps 734 mmHg 46%
16:00 +5°C° 0 mm 2 mps 733 mmHg 42%
17:00 +5°C° 0 mm 2 mps 733 mmHg 38%
18:00 +5°C° 0 mm 2 mps 733 mmHg 38%
19:00 +5°C° 0 mm 2 mps 733 mmHg 37%
20:00 +5°C° 0 mm 2 mps 733 mmHg 36%
21:00 +5°C° 0 mm 2 mps 733 mmHg 36%
22:00 +4°C° 0 mm 3 mps 733 mmHg 35%
23:00 +4°C° 0 mm 3 mps 732 mmHg 34%

31 January, Sunday

Time Temperature Precipitation Wind Pressure Humidity
00:00 +4°C° 0 mm 3 mps 732 mmHg 34%
01:00 +5°C° 0 mm 2 mps 732 mmHg 33%
02:00 +5°C° 0 mm 2 mps 731 mmHg 32%
03:00 +6°C° 0 mm 2 mps 731 mmHg 33%
04:00 +5°C° 0 mm 3 mps 731 mmHg 34%
05:00 +5°C° 0 mm 3 mps 730 mmHg 35%
06:00 +5°C° 0 mm 3 mps 730 mmHg 38%
07:00 +5°C° 0 mm 3 mps 730 mmHg 40%
08:00 +5°C° 0 mm 3 mps 730 mmHg 43%
09:00 +7°C° 0 mm 2 mps 730 mmHg 48%
10:00 +8°C° 0 mm 1 mps 730 mmHg 53%
11:00 +9°C° 0 mm 1 mps 730 mmHg 58%
12:00 +8°C° 0 mm 1 mps 729 mmHg 60%
13:00 +7°C° 0 mm 2 mps 729 mmHg 63%
14:00 +7°C° 0 mm 3 mps 729 mmHg 65%
15:00 +6°C° 0 mm 2 mps 729 mmHg 65%
16:00 +6°C° 0 mm 2 mps 729 mmHg 64%
17:00 +7°C° 0 mm 1 mps 729 mmHg 64%
18:00 +6°C° 0 mm 1 mps 730 mmHg 64%
19:00 +6°C° 0 mm 1 mps 731 mmHg 65%
20:00 +6°C° 0 mm 1 mps 732 mmHg 65%
21:00 +4°C° 0.5 mm 2 mps 732 mmHg 72%
22:00 +4°C° 0.5 mm 2 mps 733 mmHg 80%
23:00 +3°C° 0.5 mm 2 mps 734 mmHg 87%

1 February, Monday

Time Temperature Precipitation Wind Pressure Humidity
00:00 +3°C° 0.2 mm 2 mps 734 mmHg 87%
01:00 +4°C° 0.2 mm 2 mps 734 mmHg 88%
02:00 +5°C° 0.2 mm 1 mps 734 mmHg 88%
03:00 +5°C° 0 mm 1 mps 735 mmHg 86%
04:00 +5°C° 0 mm 1 mps 735 mmHg 84%
05:00 +5°C° 0 mm 1 mps 735 mmHg 82%
06:00 +4°C° 0 mm 2 mps 735 mmHg 79%
07:00 +4°C° 0 mm 2 mps 736 mmHg 76%
08:00 +4°C° 0 mm 2 mps 736 mmHg 73%
09:00 +5°C° 0 mm 2 mps 736 mmHg 72%
10:00 +6°C° 0 mm 1 mps 737 mmHg 72%
11:00 +7°C° 0 mm 1 mps 737 mmHg 71%
12:00 +8°C° 0 mm 1 mps 737 mmHg 71%
13:00 +9°C° 0 mm 1 mps 737 mmHg 71%
14:00 +10°C° 0 mm 1 mps 737 mmHg 71%
15:00 +9°C° 0.1 mm 1 mps 737 mmHg 73%
16:00 +8°C° 0.1 mm 1 mps 737 mmHg 75%
17:00 +7°C° 0.1 mm 2 mps 738 mmHg 77%
18:00 +6°C° 0 mm 2 mps 738 mmHg 79%
19:00 +6°C° 0 mm 2 mps 738 mmHg 81%
20:00 +6°C° 0 mm 2 mps 738 mmHg 83%
21:00 +6°C° 0 mm 2 mps 739 mmHg 84%
22:00 +5°C° 0 mm 2 mps 739 mmHg 86%
23:00 +5°C° 0 mm 2 mps 739 mmHg 88%
Show more

We Need Your Consent

Meteoprog and our Service Providers may store and access personal data such as cookies, device identifiers or other similar technologies on your device and process such data to personalise content and ads, as well as provide social media features and to analyse the traffic.

  • Store and/or access information on your device

    Cookies, device identifiers or other information can be stored or accessed on your device for the purposes indicated above.

  • Personalised ads and content, ad and content measurement, audience insights, and products development

    Ads and content can be personalised based on a profile. More data can be added to better personalise ads and content. Ad and content performance can be measured. Insights about the audience who saw the ads and content can be derived. Such data can be used to develop or improve user’s experience, systems and software.

By clicking ‘I Agree’ you will allow the use of indicated cookies, device identifiers, web beacons or other similar technologies. Your settings can be changed in the browser on your device.

For certain purposes, legitimate interests may be relied on, rather than consent. You can read more about this in our Privacy and Cookie Policy.